Location: Assche-ter-Heiden
(50.9174°N, 4.1574°E)
Time: 01:07:47
(UTC+00:00)

Cosmos 1758 - Pass Details

Date: 20 January 2020
Orbit: 541 x 562 km, 82.5° (Epoch: 28 February)

Event Time Altitude Azimuth Distance (km) Brightness Sun altitude
Exits shadow 05:11:42 32° 359° (N) 948 4.4 -22.2°
Drops below altitude 10° 05:13:58 10° 7° (N) 1,824 6.0 -21.8°
Sets 05:16:09 0° 9° (N) 2,720 6.9 -21.5°
